Meteo orario Alimtau

Oggi, 20 Ottobre, Martedi

Tempo Temperatura Precipitazioni Vento Pressione Umidità
00:00 +15°C° 0 mm 1 m/s 725 mm Hg 19%
01:00 +15°C° 0 mm 1 m/s 724 mm Hg 19%
02:00 +15°C° 0 mm 1 m/s 724 mm Hg 20%
03:00 +14°C° 0 mm 1 m/s 724 mm Hg 21%
04:00 +14°C° 0 mm 1 m/s 724 mm Hg 22%
05:00 +13°C° 0 mm 1 m/s 724 mm Hg 22%
06:00 +14°C° 0 mm 2 m/s 724 mm Hg 21%
07:00 +15°C° 0 mm 2 m/s 724 mm Hg 20%
08:00 +16°C° 0 mm 2 m/s 724 mm Hg 19%
09:00 +19°C° 0 mm 2 m/s 725 mm Hg 17%
10:00 +21°C° 0 mm 2 m/s 725 mm Hg 14%
11:00 +25°C° 0 mm 3 m/s 725 mm Hg 11%
12:00 +26°C° 0 mm 3 m/s 725 mm Hg 11%
13:00 +27°C° 0 mm 3 m/s 725 mm Hg 10%
14:00 +28°C° 0 mm 3 m/s 725 mm Hg 10%
15:00 +27°C° 0 mm 3 m/s 725 mm Hg 11%
16:00 +26°C° 0 mm 3 m/s 725 mm Hg 13%
17:00 +24°C° 0 mm 2 m/s 725 mm Hg 14%
18:00 +21°C° 0 mm 2 m/s 725 mm Hg 16%
19:00 +20°C° 0 mm 1 m/s 725 mm Hg 18%
20:00 +16°C° 0 mm 0 m/s 725 mm Hg 21%
21:00 +16°C° 0 mm 1 m/s 725 mm Hg 21%
22:00 +16°C° 0 mm 1 m/s 725 mm Hg 21%
23:00 +16°C° 0 mm 2 m/s 725 mm Hg 22%

Domani, 21 Ottobre, Mercoledi

Tempo Temperatura Precipitazioni Vento Pressione Umidità
00:00 +16°C° 0 mm 2 m/s 725 mm Hg 22%
01:00 +16°C° 0 mm 2 m/s 725 mm Hg 22%
02:00 +15°C° 0 mm 2 m/s 725 mm Hg 22%
03:00 +15°C° 0 mm 2 m/s 726 mm Hg 23%
04:00 +14°C° 0 mm 2 m/s 726 mm Hg 24%
05:00 +14°C° 0 mm 2 m/s 727 mm Hg 24%
06:00 +15°C° 0 mm 2 m/s 727 mm Hg 23%
07:00 +15°C° 0 mm 2 m/s 727 mm Hg 22%
08:00 +16°C° 0 mm 2 m/s 727 mm Hg 21%
09:00 +18°C° 0 mm 3 m/s 728 mm Hg 18%
10:00 +21°C° 0 mm 3 m/s 728 mm Hg 15%
11:00 +25°C° 0 mm 4 m/s 728 mm Hg 11%
12:00 +26°C° 0 mm 4 m/s 728 mm Hg 11%
13:00 +26°C° 0 mm 4 m/s 728 mm Hg 11%
14:00 +27°C° 0 mm 4 m/s 728 mm Hg 10%
15:00 +26°C° 0 mm 3 m/s 728 mm Hg 11%
16:00 +24°C° 0 mm 3 m/s 727 mm Hg 12%
17:00 +22°C° 0 mm 3 m/s 727 mm Hg 13%
18:00 +20°C° 0 mm 2 m/s 727 mm Hg 15%
19:00 +20°C° 0 mm 1 m/s 727 mm Hg 16%
20:00 +18°C° 0 mm 1 m/s 727 mm Hg 18%
21:00 +18°C° 0 mm 1 m/s 727 mm Hg 18%
22:00 +16°C° 0 mm 1 m/s 727 mm Hg 18%
23:00 +16°C° 0 mm 2 m/s 727 mm Hg 18%

Dopodomani, 22 Ottobre, Giovedi

Tempo Temperatura Precipitazioni Vento Pressione Umidità
00:00 +16°C° 0 mm 2 m/s 727 mm Hg 20%
01:00 +15°C° 0 mm 2 m/s 727 mm Hg 21%
02:00 +14°C° 0 mm 2 m/s 727 mm Hg 22%
03:00 +13°C° 0 mm 2 m/s 728 mm Hg 33%
04:00 +12°C° 0 mm 3 m/s 728 mm Hg 45%
05:00 +11°C° 0 mm 3 m/s 729 mm Hg 56%
06:00 +11°C° 0 mm 3 m/s 729 mm Hg 57%
07:00 +11°C° 0 mm 3 m/s 729 mm Hg 59%
08:00 +11°C° 0 mm 3 m/s 730 mm Hg 60%
09:00 +13°C° 0 mm 3 m/s 730 mm Hg 55%
10:00 +14°C° 0 mm 3 m/s 730 mm Hg 49%
11:00 +16°C° 0 mm 3 m/s 730 mm Hg 44%
12:00 +17°C° 0 mm 3 m/s 729 mm Hg 41%
13:00 +17°C° 0 mm 3 m/s 729 mm Hg 38%
14:00 +18°C° 0 mm 3 m/s 728 mm Hg 36%
15:00 +17°C° 0 mm 3 m/s 728 mm Hg 36%
16:00 +16°C° 0 mm 3 m/s 728 mm Hg 36%
17:00 +16°C° 0 mm 3 m/s 728 mm Hg 37%
18:00 +13°C° 0 mm 3 m/s 728 mm Hg 38%
19:00 +11°C° 0 mm 3 m/s 728 mm Hg 40%
20:00 +10°C° 0 mm 3 m/s 728 mm Hg 41%
21:00 +10°C° 0 mm 3 m/s 728 mm Hg 40%
22:00 +9°C° 0 mm 3 m/s 728 mm Hg 40%
23:00 +9°C° 0 mm 3 m/s 727 mm Hg 39%

23 Ottobre, Venerdi

Tempo Temperatura Precipitazioni Vento Pressione Umidità
00:00 +9°C° 0.1 mm 2 m/s 727 mm Hg 41%
01:00 +9°C° 0.1 mm 2 m/s 728 mm Hg 42%
02:00 +10°C° 0.1 mm 2 m/s 728 mm Hg 44%
03:00 +10°C° 0.2 mm 1 m/s 728 mm Hg 48%
04:00 +10°C° 0.2 mm 1 m/s 728 mm Hg 52%
05:00 +10°C° 0.2 mm 1 m/s 728 mm Hg 57%
06:00 +10°C° 0 mm 1 m/s 729 mm Hg 56%
07:00 +10°C° 0 mm 1 m/s 729 mm Hg 54%
08:00 +9°C° 0 mm 2 m/s 730 mm Hg 53%
09:00 +10°C° 0 mm 2 m/s 730 mm Hg 50%
10:00 +12°C° 0 mm 2 m/s 730 mm Hg 46%
11:00 +12°C° 0 mm 3 m/s 731 mm Hg 42%
12:00 +12°C° 0 mm 3 m/s 731 mm Hg 41%
13:00 +13°C° 0 mm 3 m/s 731 mm Hg 39%
14:00 +14°C° 0 mm 3 m/s 731 mm Hg 37%
15:00 +14°C° 0 mm 2 m/s 731 mm Hg 39%
16:00 +14°C° 0 mm 2 m/s 731 mm Hg 41%
17:00 +13°C° 0 mm 1 m/s 731 mm Hg 43%
18:00 +12°C° 0 mm 1 m/s 731 mm Hg 48%
19:00 +11°C° 0 mm 1 m/s 731 mm Hg 53%
20:00 +8°C° 0 mm 2 m/s 732 mm Hg 58%
21:00 +9°C° 0 mm 1 m/s 732 mm Hg 60%
22:00 +9°C° 0 mm 1 m/s 732 mm Hg 62%
23:00 +8°C° 0 mm 1 m/s 732 mm Hg 64%

24 Ottobre, Sabato

Tempo Temperatura Precipitazioni Vento Pressione Umidità
00:00 +8°C° 0 mm 1 m/s 732 mm Hg 65%
01:00 +8°C° 0 mm 1 m/s 732 mm Hg 65%
02:00 +7°C° 0 mm 2 m/s 732 mm Hg 65%
03:00 +7°C° 0 mm 2 m/s 732 mm Hg 66%
04:00 +7°C° 0 mm 2 m/s 732 mm Hg 66%
05:00 +7°C° 0 mm 2 m/s 733 mm Hg 66%
06:00 +7°C° 0 mm 3 m/s 733 mm Hg 65%
07:00 +8°C° 0 mm 3 m/s 733 mm Hg 64%
08:00 +8°C° 0 mm 3 m/s 733 mm Hg 63%
09:00 +10°C° 0 mm 3 m/s 733 mm Hg 55%
10:00 +12°C° 0 mm 4 m/s 733 mm Hg 47%
11:00 +13°C° 0 mm 4 m/s 734 mm Hg 39%
12:00 +14°C° 0 mm 4 m/s 733 mm Hg 37%
13:00 +16°C° 0 mm 3 m/s 733 mm Hg 34%
14:00 +16°C° 0 mm 3 m/s 733 mm Hg 32%
15:00 +16°C° 0 mm 3 m/s 733 mm Hg 33%
16:00 +14°C° 0 mm 4 m/s 733 mm Hg 35%
17:00 +13°C° 0 mm 4 m/s 733 mm Hg 36%
18:00 +11°C° 0 mm 4 m/s 733 mm Hg 38%
19:00 +10°C° 0 mm 4 m/s 734 mm Hg 41%
20:00 +7°C° 0 mm 4 m/s 734 mm Hg 43%
21:00 +8°C° 0 mm 3 m/s 734 mm Hg 44%
22:00 +8°C° 0 mm 3 m/s 734 mm Hg 45%
23:00 +8°C° 0 mm 3 m/s 734 mm Hg 45%

25 Ottobre, Domenica

Tempo Temperatura Precipitazioni Vento Pressione Umidità
00:00 +8°C° 0 mm 3 m/s 734 mm Hg 46%
01:00 +8°C° 0 mm 2 m/s 734 mm Hg 47%
02:00 +8°C° 0 mm 2 m/s 734 mm Hg 48%
03:00 +7°C° 0 mm 2 m/s 734 mm Hg 49%
04:00 +7°C° 0 mm 2 m/s 734 mm Hg 49%
05:00 +8°C° 0 mm 1 m/s 734 mm Hg 50%
06:00 +9°C° 0 mm 1 m/s 734 mm Hg 47%
07:00 +10°C° 0 mm 1 m/s 734 mm Hg 45%
08:00 +10°C° 0 mm 1 m/s 734 mm Hg 42%
09:00 +13°C° 0 mm 1 m/s 734 mm Hg 37%
10:00 +15°C° 0 mm 1 m/s 734 mm Hg 32%
11:00 +18°C° 0 mm 1 m/s 734 mm Hg 28%
12:00 +19°C° 0 mm 1 m/s 734 mm Hg 26%
13:00 +19°C° 0 mm 2 m/s 733 mm Hg 25%
14:00 +20°C° 0 mm 3 m/s 733 mm Hg 23%
15:00 +19°C° 0 mm 3 m/s 733 mm Hg 25%
16:00 +17°C° 0 mm 3 m/s 733 mm Hg 27%
17:00 +16°C° 0 mm 3 m/s 732 mm Hg 29%
18:00 +14°C° 0 mm 3 m/s 732 mm Hg 33%
19:00 +12°C° 0 mm 3 m/s 732 mm Hg 36%
20:00 +11°C° 0 mm 3 m/s 732 mm Hg 40%
21:00 +10°C° 0 mm 3 m/s 732 mm Hg 40%
22:00 +10°C° 0 mm 3 m/s 731 mm Hg 39%
23:00 +10°C° 0 mm 3 m/s 731 mm Hg 39%

26 Ottobre, Lunedi

Tempo Temperatura Precipitazioni Vento Pressione Umidità
00:00 +10°C° 0 mm 3 m/s 731 mm Hg 37%
01:00 +10°C° 0 mm 3 m/s 731 mm Hg 36%
02:00 +10°C° 0 mm 2 m/s 731 mm Hg 34%
03:00 +10°C° 0 mm 2 m/s 730 mm Hg 32%
04:00 +10°C° 0 mm 2 m/s 730 mm Hg 30%
05:00 +9°C° 0 mm 2 m/s 730 mm Hg 28%
06:00 +10°C° 0 mm 2 m/s 730 mm Hg 25%
07:00 +12°C° 0 mm 2 m/s 730 mm Hg 23%
08:00 +13°C° 0 mm 1 m/s 730 mm Hg 20%
09:00 +15°C° 0 mm 2 m/s 730 mm Hg 17%
10:00 +18°C° 0 mm 2 m/s 730 mm Hg 14%
11:00 +21°C° 0 mm 2 m/s 730 mm Hg 12%
12:00 +23°C° 0 mm 2 m/s 730 mm Hg 11%
13:00 +24°C° 0 mm 3 m/s 729 mm Hg 10%
14:00 +25°C° 0 mm 3 m/s 729 mm Hg 9%
15:00 +24°C° 0 mm 3 m/s 729 mm Hg 10%
16:00 +21°C° 0 mm 3 m/s 728 mm Hg 12%
17:00 +20°C° 0 mm 3 m/s 728 mm Hg 13%
18:00 +18°C° 0 mm 3 m/s 728 mm Hg 15%
19:00 +17°C° 0 mm 3 m/s 727 mm Hg 16%
20:00 +14°C° 0 mm 3 m/s 727 mm Hg 18%
21:00 +15°C° 0 mm 2 m/s 727 mm Hg 18%
22:00 +14°C° 0 mm 2 m/s 726 mm Hg 18%
23:00 +14°C° 0 mm 2 m/s 726 mm Hg 18%
Mostrare altro

Abbiamo bisogno del tuo consenso

Meteoprog e i nostri fornitori di servizi possono memorizzare e accedere a dati personali come cookie, identificatori di dispositivi o altre tecnologie simili sul tuo dispositivo e possono elaborare tali dati per personalizzare i contenuti e gli annunci, nonché fornire funzionalità dei social media e analizzarne il traffico.

  • Archiviare e/o accedere alle informazioni sul tuo dispositivo

    Cookie, identificatori di dispositivi o altre informazioni possono essere memorizzati o resi accessibili sul tuo dispositivo per le finalità sopra indicate.

  • Annunci e contenuti personalizzati, misurazione di annunci e contenuti, approfondimenti sul pubblico e sviluppo di prodotti

    Gli annunci e i contenuti possono essere personalizzati in base a un profilo. È possibile aggiungere più dati per personalizzare meglio annunci e contenuti. È possibile misurare il rendimento degli annunci e dei contenuti. È possibile ricavare informazioni sul pubblico che ha visto gli annunci e i contenuti. Tali dati possono essere utilizzati per sviluppare o migliorare l'esperienza, i sistemi e il software dell'utente.

Cliccando su “Accetto”, acconsenti all'uso di cookie, identificatori di dispositivo, web beacon o altre tecnologie simili. Puoi modificare le impostazioni nel browser del tuo dispositivo.

Per determinati scopi, è possibile fare affidamento su interessi legali, piuttosto che sul consenso. Puoi approfondire questo argomento consultando la nostra Informativa sulla privacy e sui cookie.